Погода в Есиле

Погода в Есиле : погода сейчас, прогноз погоды и архив. Всё, что Вы хотите узнать о погоде в Есиле!

Хотите узнать прогноз погоды в Есиле? Тогда Вам сюда: Погода в Есиле

Поиск расширенной информации на нашем сайте:

Полезная информация: Мероприятие финал конкурса бабушкины блины блины на мероприятие заказать.

Другие новости

Новости СМИ2

Главная страница сайта

Новости сайта

03.07.2017

Напоминаем, что на нашем специализированном сайте Метеоцентр.Азия вы можете получить высокодетализированные автоматические прогнозы погоды по пунктам России, СНГ и мира в авиационном формате (включающие направление и скорость ветра, видимость, явления погоды, количество и форму облачности, нижнюю и верхнюю границу облачности).

Рекомендуем: тумба челябинск

Погода в Есиле - сегодня

Время (UTC), дата Ветер
(°,м/с) 
Видим.   Явления Облачность Т
(°С)
Тd
(°С)
f(%) Тe
(°С)
Pmin
(гПа)
dP
(гПа)
Po
(мм)
O2
(г/м3)
Тmin Tmax R s Состояние
почвы
03 19.08.17 тихо ()   20000 м    ясно 
+11.7 +5.9 68 +12  1027.1  1.1  750  289           
06 19.08.17 360 (С) 20000 м    8/8 1000 м 
[Cu med, cong]
+17.6 +4.9 43 +18  1026.3  -0.3  750  283  +4.4         
09 19.08.17 290 (З) 20000 м    8/8 1000 м 
[Cu med, cong]
+21 +4.1 33 +21  1025.1  -0.9  749  280           
12 19.08.17 020 (С) 20000 м    5/5 1000 м 
[Cu hum]
+22.4 +3 28 +22  1024.3  -0.6  749  278           
15 19.08.17 360 (С) 20000 м    3/1 600 м верхняя 
[Sc diur, vesp|Ci fib]
+17.4 +5.7 46 +19  1025.1  0.3  749  283    +23       
18 19.08.17 360 (С) н/о    ясно 
+12.4 +4.5 59 +14  1026  0.4  750  288    +23       
21 19.08.17 тихо ()   н/о    ясно 
+10.9 +4.7 66 +11  1025.8  -0.3  749  290           
00 20.08.17 тихо ()   н/о    4/0 средняя 
[Ac trans]
+7.3 +3 74 +7  1026.6  0.4  750  294           
03 20.08.17 тихо ()   20000 м    8/3 600 м средняя 
[Sc|Ac trans]
+12.5 +6.7 68 +13  1026.3  0.3  750  288           
06 20.08.17 360 (С) 20000 м    4/4 600 м 
[Cu Sc]
+21.5 +5.8 36 +22  1024.8  -0.7  749  279  +6         
09 20.08.17 180 (Ю) 20000 м    8/5 600 м средняя 
[Cu Sc|Ac trans]
+25.1 +5.6 29 +25  1022.9  -1.6  748  275           
12 20.08.17 160 (Ю) 20000 м    4/3 1000 м верхняя 
[Cu hum|Ci fib]
+25.5 +5.4 27 +26  1021.7  -1.1  747  275           
15 20.08.17 090 (В) 20000 м    3/3 600 м 
[Sc]
+22.8 +5.3 32 +23  1020.8  -1.1  746  277    +27.5       
18 20.08.17 140 (ЮВ) н/о    3/3 600 м 
[Sc]
+17.3 +3.9 41 +18  1021.9  0.6  747  282    +27.5       
21 20.08.17 140 (ЮВ) н/о    ясно 
+16.8 +2.2 37 +17  1021.2  -0.7  746  283           
00 21.08.17 140 (ЮВ) н/о    6/6 600 м 
[Sc]
+16.7 +2.4 38 +17  1021.4  0.1  746  283           
03 21.08.17 140 (ЮВ) 20000 м    6/4 600 м верхняя 
[Sc|Ci fib]
+19 +2.6 34 +20  1021.6  0.4  747  281           
06 21.08.17 140 (ЮВ) 20000 м    8/0 средняя, верхняя 
[Ac trans|Cc]
+25.1 +3 24 +25  1020.8  -0.2  747  275  +15         
09 21.08.17 140 (ЮВ) 20000 м    6/0 средняя 
[Ac lent]
+27.3 +4.9 24 +27  1020  -0.6  746  273           
12 21.08.17 110 (В) 20000 м    3/0 средняя 
[Ac lent]
+27.9 +4.1 22 +28  1019.2  -0.7  746  272           
15 21.08.17 090 (В) 20000 м    5/0 средняя, верхняя 
[Ac trans|Ci fib]
+24 +3.7 27 +24  1020.1  0.5  746  276    +28.5       
18 21.08.17 090 (В) н/о    3/0 верхняя 
[Ci fib]
+17.5 +3.3 39 +18  1021.9  1.2  747  282    +28.5       
21 21.08.17 тихо ()   н/о    3/0 верхняя 
[Ci fib]
+13.6 +3.4 50 +14  1022.9  0.6  747  286           
00 22.08.17 тихо ()   н/о    3/0 верхняя 
[Ci fib]
+9 +3.5 68 +9  1024.4  1.1  748  291           
03 22.08.17 090 (В) 20000 м    3/0 верхняя 
[Ci fib]
+17.6 +3.4 39 +19  1024.7  749  283           
Время (UTC), дата Ветер
(°,м/с) 
Видим.   Явления Облачность Т
(°С)
Тd
(°С)
f(%) Тe
(°С)
Pmin
(гПа)
dP
(гПа)
Po
(мм)
O2
(г/м3)
Тmin Tmax R s Состояние
почвы

Для получения пояснительной информации подведите курсор к названию столбца.

ПОГОДА в Есиле - архив

Всё, что Вы хотите узнать о погоде в Есиле - удобно и подробно!

Выберите нужную дату (начиная с 1 января 2015* года) и нажмите кнопку "Найти".
Будут отображены архивные сводки погоды по пункту Есиль, начиная с указанной даты.


Отображать данные в формате CSV (для использования в таблицах Excel)


Внимание! Наш архив погоды предназначен исключительно для личного некоммерческого использования в познавательных целях. Если Вам необходимы официальные справки о состоянии погоды (для производственных, юридических, коммерческих и т.п. целей), обращайтесь в органы Росгидромета.

*Примечание: данная дата относится к архиву по метеостанциям СССР (Россия, СНГ, Балтия).
Архив по метеостанциям Зарубежной Европы и Азии (кроме Китая) хранится 10 дней, по другим регионам земного шара (Китай, Африка, Америка, Австралия, Океания) - 1 день.

Есиль - район местоположения метеостанции


Название, широта, долгота, высота метеостанции:
Есиль 51.9°ш. 66.3°д. 221 м над ур. моря [Казахстан]

Дополнительная информация

В oтличие oт бoльшинства пoгoдных сайтoв мы публикуем пoдрoбную метеoинфoрмацию в детальнoм прoфессиoнальнoм фoрмате.

Характеристики температуры и влажнoсти вoздуха измеряются на высoте 2 м в тени вдали oт зданий и деревьев.
Скoрoсть ветра измеряется на высoте 10 м (на урoвне рoста челoвека скoрoсть ветра ниже в 1.5-2 раза). Если метеoстанция нахoдится в гoрoде или в лесу, тo скoрoсть ветра занижена на 2-4 м/с пo сравнению с oткрытым местoм. Скoрoсть ветра над акватoриями крупных рек и oзёр, а также на вершинах хoлмoв на 2-5 м/с выше, чем в oбычных услoвиях.
Атмoсфернoе давление в разных тoчках местнoсти мoжет значительнo oтличаться oт давления на метеoстанции, в зависимoсти oт услoвий рельефа (при пoдъёме на 10 м давление пoнижается примернo на 1 мм рт.ст.).